Time,TemperatureF,DewpointF,PressureIn,WindDirection,WindDirectionDegrees,WindSpeedMPH,WindSpeedGustMPH,Humidity,HourlyPrecipIn,Conditions,Clouds,dailyrainin,SolarRadiationWatts/m^2,SoftwareType,DateUTC
2013-05-24 00:21:00,59.0,45.0,-100.00,SW,221,16.0,22.0,60,0.00,,,-99.99,0.000000,,2013-05-24 06:21:00,
2013-05-24 00:32:00,59.0,45.0,-100.00,SW,221,16.0,22.0,60,0.00,,,-99.99,0.000000,,2013-05-24 06:32:00,
2013-05-24 00:41:00,59.0,45.0,-100.00,SW,221,16.0,22.0,60,0.00,,,-99.99,0.000000,,2013-05-24 06:41:00,
2013-05-24 00:52:00,59.0,45.0,-100.00,SW,221,16.0,22.0,60,0.00,,,-99.99,0.000000,,2013-05-24 06:52:00,
2013-05-24 01:22:00,56.0,52.0,-100.00,West,263,18.0,24.0,87,0.00,,,0.00,0.000000,,2013-05-24 07:22:00,
2013-05-24 01:31:00,56.0,52.0,-100.00,West,263,18.0,24.0,87,0.00,,,0.00,0.000000,,2013-05-24 07:31:00,
2013-05-24 01:42:00,56.0,52.0,-100.00,West,263,18.0,24.0,87,0.00,,,0.00,0.000000,,2013-05-24 07:42:00,
2013-05-24 01:52:00,56.0,52.0,-100.00,West,263,18.0,24.0,87,0.00,,,0.00,0.000000,,2013-05-24 07:52:00,
2013-05-24 02:22:00,54.0,50.0,-100.00,West,262,9.0,22.0,87,0.00,,,0.00,0.000000,,2013-05-24 08:22:00,
2013-05-24 02:32:00,54.0,50.0,-100.00,West,262,9.0,22.0,87,0.00,,,0.00,0.000000,,2013-05-24 08:32:00,
2013-05-24 02:41:00,54.0,50.0,-100.00,West,262,9.0,22.0,87,0.00,,,0.00,0.000000,,2013-05-24 08:41:00,
2013-05-24 02:51:00,54.0,50.0,-100.00,West,262,9.0,22.0,87,0.00,,,0.00,0.000000,,2013-05-24 08:51:00,
2013-05-24 03:21:00,52.0,49.0,-100.00,West,260,5.0,13.0,89,0.00,,,0.00,0.000000,,2013-05-24 09:21:00,
2013-05-24 03:32:00,52.0,49.0,-100.00,West,260,5.0,13.0,89,0.00,,,0.00,0.000000,,2013-05-24 09:32:00,
2013-05-24 03:42:00,52.0,49.0,-100.00,West,260,5.0,13.0,89,0.00,,,0.00,0.000000,,2013-05-24 09:42:00,
2013-05-24 03:52:00,52.0,49.0,-100.00,West,260,5.0,13.0,89,0.00,,,0.00,0.000000,,2013-05-24 09:52:00,
2013-05-24 04:22:00,51.0,49.0,-100.00,WSW,237,4.0,11.0,93,0.00,,,0.00,0.000000,,2013-05-24 10:22:00,
2013-05-24 04:32:00,51.0,49.0,-100.00,WSW,237,4.0,11.0,93,0.00,,,0.00,0.000000,,2013-05-24 10:32:00,
2013-05-24 04:42:00,51.0,49.0,-100.00,WSW,237,4.0,11.0,93,0.00,,,0.00,0.000000,,2013-05-24 10:42:00,
2013-05-24 04:52:00,51.0,49.0,-100.00,WSW,237,4.0,11.0,93,0.00,,,0.00,0.000000,,2013-05-24 10:52:00,
2013-05-24 05:22:00,53.0,52.0,-100.00,West,271,8.0,18.0,95,0.01,,,0.01,0.000000,,2013-05-24 11:22:00,
2013-05-24 05:32:00,53.0,52.0,-100.00,West,271,8.0,18.0,95,0.01,,,0.01,0.000000,,2013-05-24 11:32:00,
2013-05-24 05:42:00,53.0,52.0,-100.00,West,271,8.0,18.0,95,0.01,,,0.01,0.000000,,2013-05-24 11:42:00,
2013-05-24 05:51:00,53.0,52.0,-100.00,West,271,8.0,18.0,95,0.01,,,0.01,0.000000,,2013-05-24 11:51:00,
2013-05-24 06:21:00,54.0,51.0,-100.00,West,280,17.0,25.0,90,0.01,,,0.02,0.000000,,2013-05-24 12:21:00,
2013-05-24 06:32:00,54.0,51.0,-100.00,West,280,17.0,25.0,90,0.01,,,0.02,0.000000,,2013-05-24 12:32:00,
2013-05-24 06:42:00,54.0,51.0,-100.00,West,280,17.0,25.0,90,0.01,,,0.02,0.000000,,2013-05-24 12:42:00,
2013-05-24 06:52:00,54.0,51.0,-100.00,West,280,17.0,25.0,90,0.01,,,0.02,0.000000,,2013-05-24 12:52:00,
2013-05-24 07:21:00,51.0,46.0,-100.00,NW,316,11.0,27.0,82,0.00,,,0.02,12.000000,,2013-05-24 13:21:00,
2013-05-24 07:32:00,51.0,46.0,-100.00,NW,316,11.0,27.0,82,0.00,,,0.02,12.000000,,2013-05-24 13:32:00,
2013-05-24 07:41:00,51.0,46.0,-100.00,NW,316,11.0,27.0,82,0.00,,,0.02,12.000000,,2013-05-24 13:41:00,
2013-05-24 07:52:00,51.0,46.0,-100.00,NW,316,11.0,27.0,82,0.00,,,0.02,12.000000,,2013-05-24 13:52:00,
2013-05-24 08:21:00,53.0,46.0,-100.00,NW,322,7.0,16.0,76,0.00,,,0.02,165.000000,,2013-05-24 14:21:00,
2013-05-24 08:31:00,53.0,46.0,-100.00,NW,322,7.0,16.0,76,0.00,,,0.02,165.000000,,2013-05-24 14:31:00,
2013-05-24 08:42:00,53.0,46.0,-100.00,NW,322,7.0,16.0,76,0.00,,,0.02,165.000000,,2013-05-24 14:42:00,
2013-05-24 08:51:00,53.0,46.0,-100.00,NW,322,7.0,16.0,76,0.00,,,0.02,165.000000,,2013-05-24 14:51:00,
2013-05-24 09:21:00,57.0,47.0,-100.00,West,264,5.0,11.0,70,0.00,,,0.02,466.000000,,2013-05-24 15:21:00,
2013-05-24 09:32:00,57.0,47.0,-100.00,West,264,5.0,11.0,70,0.00,,,0.02,466.000000,,2013-05-24 15:32:00,
2013-05-24 09:43:00,57.0,47.0,-100.00,West,264,5.0,11.0,70,0.00,,,0.02,466.000000,,2013-05-24 15:43:00,
2013-05-24 09:52:00,57.0,47.0,-100.00,West,264,5.0,11.0,70,0.00,,,0.02,466.000000,,2013-05-24 15:52:00,
2013-05-24 10:22:00,62.0,49.0,-100.00,NW,319,6.0,13.0,62,0.00,,,0.02,627.000000,,2013-05-24 16:22:00,
2013-05-24 10:32:00,62.0,49.0,-100.00,NW,319,6.0,13.0,62,0.00,,,0.02,627.000000,,2013-05-24 16:32:00,
2013-05-24 11:22:00,66.0,33.0,-100.00,WNW,294,16.0,24.0,29,0.00,,,0.02,793.000000,,2013-05-24 17:22:00,
2013-05-24 11:32:00,66.0,33.0,-100.00,WNW,294,16.0,24.0,29,0.00,,,0.02,793.000000,,2013-05-24 17:32:00,
2013-05-24 11:41:00,66.0,33.0,-100.00,WNW,294,16.0,24.0,29,0.00,,,0.02,793.000000,,2013-05-24 17:41:00,
2013-05-24 11:52:00,66.0,33.0,-100.00,WNW,294,16.0,24.0,29,0.00,,,0.02,793.000000,,2013-05-24 17:52:00,
2013-05-24 12:21:00,68.0,34.0,-100.00,WNW,299,13.0,24.0,28,0.00,,,0.02,893.000000,,2013-05-24 18:21:00,
2013-05-24 12:32:00,68.0,34.0,-100.00,WNW,299,13.0,24.0,28,0.00,,,0.02,893.000000,,2013-05-24 18:32:00,
2013-05-24 12:41:00,68.0,34.0,-100.00,WNW,299,13.0,24.0,28,0.00,,,0.02,893.000000,,2013-05-24 18:41:00,
2013-05-24 12:51:00,68.0,34.0,-100.00,WNW,299,13.0,24.0,28,0.00,,,0.02,893.000000,,2013-05-24 18:51:00,
2013-05-24 13:21:00,69.0,27.0,-100.00,NW,309,12.0,24.0,21,0.00,,,0.02,944.000000,,2013-05-24 19:21:00,
2013-05-24 13:32:00,69.0,27.0,-100.00,NW,309,12.0,24.0,21,0.00,,,0.02,944.000000,,2013-05-24 19:32:00,
2013-05-24 13:41:00,69.0,27.0,-100.00,NW,309,12.0,24.0,21,0.00,,,0.02,944.000000,,2013-05-24 19:41:00,
2013-05-24 13:52:00,69.0,27.0,-100.00,NW,309,12.0,24.0,21,0.00,,,0.02,944.000000,,2013-05-24 19:52:00,
2013-05-24 14:21:00,71.0,28.0,-100.00,NW,315,7.0,20.0,20,0.00,,,0.02,927.000000,,2013-05-24 20:21:00,
2013-05-24 14:32:00,71.0,28.0,-100.00,NW,315,7.0,20.0,20,0.00,,,0.02,927.000000,,2013-05-24 20:32:00,
2013-05-24 14:41:00,71.0,28.0,-100.00,NW,315,7.0,20.0,20,0.00,,,0.02,927.000000,,2013-05-24 20:41:00,
2013-05-24 14:51:00,71.0,28.0,-100.00,NW,315,7.0,20.0,20,0.00,,,0.02,927.000000,,2013-05-24 20:51:00,
2013-05-24 15:21:00,71.0,28.0,-100.00,NNE,31,5.0,15.0,20,0.00,,,0.02,894.000000,,2013-05-24 21:21:00,
2013-05-24 15:32:00,71.0,28.0,-100.00,NNE,31,5.0,15.0,20,0.00,,,0.02,894.000000,,2013-05-24 21:32:00,
2013-05-24 15:42:00,71.0,28.0,-100.00,NNE,31,5.0,15.0,20,0.00,,,0.02,894.000000,,2013-05-24 21:42:00,
2013-05-24 15:52:00,71.0,28.0,-100.00,NNE,31,5.0,15.0,20,0.00,,,0.02,894.000000,,2013-05-24 21:52:00,
2013-05-24 16:22:00,72.0,27.0,-100.00,East,84,7.0,14.0,19,0.00,,,0.02,793.000000,,2013-05-24 22:22:00,
2013-05-24 16:33:00,72.0,27.0,-100.00,East,84,7.0,14.0,19,0.00,,,0.02,793.000000,,2013-05-24 22:33:00,
2013-05-24 16:42:00,72.0,27.0,-100.00,East,84,7.0,14.0,19,0.00,,,0.02,793.000000,,2013-05-24 22:42:00,
2013-05-24 16:52:00,72.0,27.0,-100.00,East,84,7.0,14.0,19,0.00,,,0.02,793.000000,,2013-05-24 22:52:00,
2013-05-24 17:22:00,73.0,28.0,-100.00,SE,128,6.0,13.0,19,0.00,,,0.02,648.000000,,2013-05-24 23:22:00,
2013-05-24 17:32:00,73.0,28.0,-100.00,SE,128,6.0,13.0,19,0.00,,,0.02,648.000000,,2013-05-24 23:32:00,
2013-05-24 17:42:00,73.0,28.0,-100.00,SE,128,6.0,13.0,19,0.00,,,0.02,648.000000,,2013-05-24 23:42:00,
2013-05-24 17:52:00,73.0,28.0,-100.00,SE,128,6.0,13.0,19,0.00,,,0.02,648.000000,,2013-05-24 23:52:00,
2013-05-24 18:21:00,72.0,29.0,-100.00,ENE,73,7.0,13.0,20,0.00,,,0.02,478.000000,,2013-05-25 00:21:00,
2013-05-24 18:32:00,72.0,29.0,-100.00,ENE,73,7.0,13.0,20,0.00,,,0.02,478.000000,,2013-05-25 00:32:00,
2013-05-24 18:41:00,72.0,29.0,-100.00,ENE,73,7.0,13.0,20,0.00,,,0.02,478.000000,,2013-05-25 00:41:00,
2013-05-24 18:51:00,72.0,29.0,-100.00,ENE,73,7.0,13.0,20,0.00,,,0.02,478.000000,,2013-05-25 00:51:00,
2013-05-24 19:22:00,72.0,30.0,-100.00,ENE,77,8.0,13.0,21,0.00,,,0.02,294.000000,,2013-05-25 01:22:00,
2013-05-24 19:32:00,72.0,30.0,-100.00,ENE,77,8.0,13.0,21,0.00,,,0.02,294.000000,,2013-05-25 01:32:00,
2013-05-24 19:41:00,72.0,30.0,-100.00,ENE,77,8.0,13.0,21,0.00,,,0.02,294.000000,,2013-05-25 01:41:00,
2013-05-24 19:52:00,72.0,30.0,-100.00,ENE,77,8.0,13.0,21,0.00,,,0.02,294.000000,,2013-05-25 01:52:00,
2013-05-24 20:21:00,69.0,33.0,-100.00,ENE,74,6.0,11.0,26,0.00,,,0.02,133.000000,,2013-05-25 02:21:00,
2013-05-24 20:31:00,69.0,33.0,-100.00,ENE,74,6.0,11.0,26,0.00,,,0.02,133.000000,,2013-05-25 02:31:00,
2013-05-24 20:42:00,69.0,33.0,-100.00,ENE,74,6.0,11.0,26,0.00,,,0.02,133.000000,,2013-05-25 02:42:00,
2013-05-24 20:51:00,69.0,33.0,-100.00,ENE,74,6.0,11.0,26,0.00,,,0.02,133.000000,,2013-05-25 02:51:00,
2013-05-24 21:21:00,63.0,30.0,-100.00,East,79,10.0,14.0,29,0.00,,,0.02,16.000000,,2013-05-25 03:21:00,
2013-05-24 21:32:00,63.0,30.0,-100.00,East,79,10.0,14.0,29,0.00,,,0.02,16.000000,,2013-05-25 03:32:00,
2013-05-24 21:43:00,63.0,30.0,-100.00,East,79,10.0,14.0,29,0.00,,,0.02,16.000000,,2013-05-25 03:43:00,
2013-05-24 21:53:00,63.0,30.0,-100.00,East,79,10.0,14.0,29,0.00,,,0.02,16.000000,,2013-05-25 03:53:00,
2013-05-24 22:23:00,63.0,29.0,-100.00,East,91,12.0,20.0,28,0.00,,,0.02,0.000000,,2013-05-25 04:23:00,
2013-05-24 22:33:00,63.0,29.0,-100.00,East,91,12.0,20.0,28,0.00,,,0.02,0.000000,,2013-05-25 04:33:00,
2013-05-24 22:43:00,63.0,29.0,-100.00,East,91,12.0,20.0,28,0.00,,,0.02,0.000000,,2013-05-25 04:43:00,
2013-05-24 22:52:00,63.0,29.0,-100.00,East,91,12.0,20.0,28,0.00,,,0.02,0.000000,,2013-05-25 04:52:00,
2013-05-24 23:22:00,59.0,30.0,-100.00,SW,225,4.0,15.0,33,0.00,,,0.02,0.000000,,2013-05-25 05:22:00,
2013-05-24 23:32:00,59.0,30.0,-100.00,SW,225,4.0,15.0,33,0.00,,,0.02,0.000000,,2013-05-25 05:32:00,
2013-05-24 23:42:00,59.0,30.0,-100.00,SW,225,4.0,15.0,33,0.00,,,0.02,0.000000,,2013-05-25 05:42:00,
2013-05-24 23:52:00,59.0,30.0,-100.00,SW,225,4.0,15.0,33,0.00,,,0.02,0.000000,,2013-05-25 05:52:00,